When you browse on this site, cookies collect data to enhance your experience and personalize the content and advertising you see.
Visit our Privacy Policy to learn more. By continuing to use the site, you agree to this use of cookies and data.
  • In Portugal
  • List of Countries
  • For 7 days
  • Water Temperature
  • Satellite Maps
  • Weather Map
  • Weather Widgets
  • user-avatar
    Login

    Hourly Weather La Rioja

    Today, 25 March, Monday

    Time Temperature Precipitation Wind Pressure Humidity
    00:00 +24°C° 0 mm 3 mps 717 mmHg 65%
    01:00 +23°C° 0 mm 2 mps 717 mmHg 65%
    02:00 +21°C° 0 mm 2 mps 717 mmHg 63%
    03:00 +22°C° 0 mm 1 mps 716 mmHg 63%
    04:00 +21°C° 0 mm 1 mps 716 mmHg 63%
    05:00 +21°C° 0 mm 1 mps 716 mmHg 63%
    06:00 +21°C° 0 mm 1 mps 716 mmHg 59%
    07:00 +21°C° 0 mm 2 mps 717 mmHg 56%
    08:00 +21°C° 0 mm 2 mps 717 mmHg 50%
    09:00 +23°C° 0 mm 2 mps 717 mmHg 48%
    10:00 +24°C° 0 mm 3 mps 717 mmHg 46%
    11:00 +25°C° 0 mm 3 mps 717 mmHg 44%
    12:00 +26°C° 0 mm 3 mps 717 mmHg 42%
    13:00 +27°C° 0 mm 4 mps 716 mmHg 41%
    14:00 +28°C° 0 mm 4 mps 716 mmHg 40%
    15:00 +28°C° 0 mm 5 mps 716 mmHg 41%
    16:00 +28°C° 0 mm 5 mps 715 mmHg 43%
    17:00 +27°C° 0 mm 6 mps 715 mmHg 44%
    18:00 +25°C° 0 mm 5 mps 716 mmHg 51%
    19:00 +22°C° 0 mm 4 mps 717 mmHg 58%
    20:00 +21°C° 0 mm 3 mps 717 mmHg 65%
    21:00 +20°C° 0 mm 3 mps 718 mmHg 68%
    22:00 +19°C° 0 mm 2 mps 719 mmHg 71%
    23:00 +19°C° 0 mm 2 mps 719 mmHg 75%

    Tomorrow, 26 March, Tuesday

    Time Temperature Precipitation Wind Pressure Humidity
    00:00 +19°C° 0 mm 2 mps 719 mmHg 76%
    01:00 +18°C° 0 mm 2 mps 719 mmHg 78%
    02:00 +18°C° 0 mm 2 mps 719 mmHg 79%
    03:00 +18°C° 0 mm 2 mps 719 mmHg 81%
    04:00 +18°C° 0 mm 2 mps 719 mmHg 82%
    05:00 +17°C° 0 mm 2 mps 719 mmHg 83%
    06:00 +18°C° 0 mm 2 mps 719 mmHg 81%
    07:00 +18°C° 0 mm 2 mps 720 mmHg 79%
    08:00 +18°C° 0 mm 2 mps 720 mmHg 78%
    09:00 +19°C° 0 mm 2 mps 720 mmHg 74%
    10:00 +20°C° 0 mm 3 mps 720 mmHg 70%
    11:00 +21°C° 0 mm 3 mps 720 mmHg 66%
    12:00 +21°C° 0 mm 3 mps 720 mmHg 64%
    13:00 +22°C° 0 mm 4 mps 719 mmHg 62%
    14:00 +22°C° 0 mm 4 mps 719 mmHg 60%
    15:00 +22°C° 0 mm 4 mps 718 mmHg 59%
    16:00 +22°C° 0 mm 4 mps 718 mmHg 59%
    17:00 +22°C° 0 mm 4 mps 718 mmHg 58%
    18:00 +21°C° 0 mm 3 mps 719 mmHg 61%
    19:00 +20°C° 0 mm 3 mps 719 mmHg 64%
    20:00 +19°C° 0 mm 3 mps 720 mmHg 67%
    21:00 +18°C° 0 mm 3 mps 720 mmHg 71%
    22:00 +17°C° 0 mm 2 mps 721 mmHg 74%
    23:00 +16°C° 0 mm 2 mps 721 mmHg 77%

    Day after tomorrow, 27 March, Wednesday

    Time Temperature Precipitation Wind Pressure Humidity
    00:00 +16°C° 0 mm 2 mps 721 mmHg 78%
    01:00 +16°C° 0 mm 2 mps 721 mmHg 79%
    02:00 +15°C° 0 mm 2 mps 720 mmHg 80%
    03:00 +15°C° 0 mm 2 mps 720 mmHg 81%
    04:00 +15°C° 0 mm 2 mps 720 mmHg 81%
    05:00 +15°C° 0 mm 1 mps 720 mmHg 82%
    06:00 +15°C° 0 mm 1 mps 720 mmHg 79%
    07:00 +16°C° 0 mm 1 mps 720 mmHg 76%
    08:00 +18°C° 0 mm 1 mps 720 mmHg 73%
    09:00 +18°C° 0 mm 2 mps 720 mmHg 69%
    10:00 +20°C° 0 mm 2 mps 720 mmHg 64%
    11:00 +21°C° 0 mm 3 mps 720 mmHg 59%
    12:00 +22°C° 0 mm 3 mps 719 mmHg 56%
    13:00 +25°C° 0 mm 3 mps 719 mmHg 52%
    14:00 +26°C° 0 mm 3 mps 718 mmHg 49%
    15:00 +26°C° 0 mm 3 mps 718 mmHg 47%
    16:00 +27°C° 0 mm 3 mps 717 mmHg 46%
    17:00 +27°C° 0 mm 4 mps 717 mmHg 45%
    18:00 +25°C° 0 mm 3 mps 718 mmHg 49%
    19:00 +24°C° 0 mm 3 mps 718 mmHg 54%
    20:00 +21°C° 0 mm 3 mps 719 mmHg 59%
    21:00 +20°C° 0 mm 3 mps 719 mmHg 63%
    22:00 +20°C° 0 mm 2 mps 719 mmHg 67%
    23:00 +19°C° 0 mm 2 mps 720 mmHg 71%

    28 March, Thursday

    Time Temperature Precipitation Wind Pressure Humidity
    00:00 +18°C° 0 mm 2 mps 719 mmHg 73%
    01:00 +19°C° 0 mm 1 mps 719 mmHg 76%
    02:00 +18°C° 0 mm 1 mps 719 mmHg 78%
    03:00 +18°C° 0 mm 1 mps 718 mmHg 79%
    04:00 +18°C° 0 mm 1 mps 718 mmHg 80%
    05:00 +18°C° 0 mm 1 mps 718 mmHg 81%
    06:00 +19°C° 0 mm 1 mps 718 mmHg 78%
    07:00 +19°C° 0 mm 1 mps 718 mmHg 74%
    08:00 +20°C° 0 mm 1 mps 719 mmHg 70%
    09:00 +21°C° 0 mm 2 mps 718 mmHg 64%
    10:00 +23°C° 0 mm 2 mps 718 mmHg 59%
    11:00 +25°C° 0 mm 2 mps 718 mmHg 53%
    12:00 +26°C° 0 mm 3 mps 717 mmHg 49%
    13:00 +28°C° 0 mm 3 mps 717 mmHg 46%
    14:00 +29°C° 0 mm 3 mps 716 mmHg 42%
    15:00 +29°C° 0 mm 3 mps 716 mmHg 41%
    16:00 +29°C° 0 mm 2 mps 715 mmHg 40%
    17:00 +29°C° 0 mm 2 mps 715 mmHg 39%
    18:00 +28°C° 0 mm 2 mps 716 mmHg 44%
    19:00 +26°C° 0 mm 2 mps 716 mmHg 49%
    20:00 +24°C° 0 mm 2 mps 716 mmHg 53%
    21:00 +24°C° 0 mm 1 mps 717 mmHg 57%
    22:00 +23°C° 0 mm 1 mps 717 mmHg 61%
    23:00 +22°C° 0 mm 1 mps 717 mmHg 65%

    29 March, Friday

    Time Temperature Precipitation Wind Pressure Humidity
    00:00 +22°C° 0 mm 1 mps 717 mmHg 66%
    01:00 +22°C° 0 mm 1 mps 716 mmHg 67%
    02:00 +21°C° 0 mm 1 mps 716 mmHg 68%
    03:00 +20°C° 0 mm 2 mps 715 mmHg 71%
    04:00 +20°C° 0 mm 2 mps 715 mmHg 73%
    05:00 +19°C° 0 mm 2 mps 714 mmHg 75%
    06:00 +20°C° 0 mm 2 mps 715 mmHg 72%
    07:00 +22°C° 0 mm 1 mps 715 mmHg 68%
    08:00 +23°C° 0 mm 1 mps 715 mmHg 64%
    09:00 +25°C° 0 mm 2 mps 714 mmHg 58%
    10:00 +27°C° 0 mm 2 mps 714 mmHg 51%
    11:00 +29°C° 0 mm 2 mps 714 mmHg 45%
    12:00 +30°C° 0 mm 3 mps 713 mmHg 42%
    13:00 +31°C° 0 mm 3 mps 712 mmHg 38%
    14:00 +33°C° 0 mm 3 mps 711 mmHg 35%
    15:00 +33°C° 0 mm 3 mps 711 mmHg 34%
    16:00 +32°C° 0 mm 2 mps 711 mmHg 33%
    17:00 +34°C° 0 mm 2 mps 711 mmHg 33%
    18:00 +31°C° 0 mm 2 mps 711 mmHg 36%
    19:00 +29°C° 0 mm 2 mps 712 mmHg 39%
    20:00 +28°C° 0 mm 2 mps 712 mmHg 43%
    21:00 +27°C° 0 mm 2 mps 713 mmHg 45%
    22:00 +27°C° 0 mm 2 mps 713 mmHg 48%
    23:00 +26°C° 0 mm 2 mps 714 mmHg 50%

    30 March, Saturday

    Time Temperature Precipitation Wind Pressure Humidity
    00:00 +26°C° 0 mm 2 mps 714 mmHg 53%
    01:00 +26°C° 0 mm 2 mps 714 mmHg 55%
    02:00 +25°C° 0 mm 2 mps 714 mmHg 57%
    03:00 +25°C° 0 mm 2 mps 714 mmHg 59%
    04:00 +24°C° 0 mm 2 mps 714 mmHg 61%
    05:00 +24°C° 0 mm 2 mps 714 mmHg 63%
    06:00 +25°C° 0 mm 2 mps 715 mmHg 59%
    07:00 +26°C° 0 mm 2 mps 715 mmHg 55%
    08:00 +27°C° 0 mm 2 mps 716 mmHg 52%
    09:00 +29°C° 0 mm 3 mps 716 mmHg 48%
    10:00 +30°C° 0 mm 3 mps 716 mmHg 45%
    11:00 +33°C° 0 mm 4 mps 717 mmHg 42%
    12:00 +34°C° 0 mm 4 mps 716 mmHg 39%
    13:00 +35°C° 0 mm 4 mps 716 mmHg 36%
    14:00 +36°C° 0 mm 4 mps 715 mmHg 33%
    15:00 +35°C° 0 mm 4 mps 715 mmHg 33%
    16:00 +35°C° 0 mm 4 mps 715 mmHg 33%
    17:00 +35°C° 0 mm 3 mps 715 mmHg 33%
    18:00 +32°C° 0 mm 2 mps 715 mmHg 39%
    19:00 +30°C° 0 mm 2 mps 716 mmHg 45%
    20:00 +28°C° 0 mm 1 mps 716 mmHg 52%
    21:00 +27°C° 0 mm 1 mps 716 mmHg 54%
    22:00 +27°C° 0 mm 1 mps 716 mmHg 57%
    23:00 +26°C° 0 mm 1 mps 717 mmHg 60%
    Show more